EW3845 Weather Reports


time (UTC)temp
C
wind
direction
speed
KPH
gust
KPH
rain 1hr
cm
rain 24hr
cm
rain mn
cm
humidity
%
barometer
mb
20260903104512 18 287 0.0 0.0 0.00 0.05 0.05 89 1017.2
20260903103009 18 296 0.0 0.0 0.00 0.05 0.05 90 1017.2
20260903101521 18 294 0.0 0.0 0.03 0.05 0.05 90 1017.3
20260903100008 18 290 0.0 0.0 0.03 0.05 0.05 90 1017.2
20260903094508 18 290 0.0 0.0 0.05 0.05 0.05 90 1017.1
20260903093006 18 360 0.0 0.0 0.05 0.05 0.05 89 1016.9
20260903091506 18 360 0.0 0.0 0.05 0.05 0.05 87 1017.2
20260903090005 18 360 0.0 0.0 0.05 0.05 0.05 84 1017.2
20260903084509 19 289 0.0 0.0 0.00 0.00 0.00 79 1017.1
20260903083002 20 360 0.0 0.0 0.00 0.00 0.00 77 1017.0
20260903081502 20 284 0.0 0.0 0.00 0.00 0.00 76 1016.8
20260903080104 20 288 0.0 0.0 0.00 0.00 0.00 77 1016.8
20260903080000 20 360 0.0 0.0 0.00 0.00 0.00 77 1016.7
20260903074605 19 189 0.0 0.0 0.00 0.00 0.00 77 1016.9
20260903073057 19 290 0.0 0.0 0.00 0.00 0.00 76 1016.9
20260903071556 19 296 0.0 0.0 0.00 0.00 0.00 76 1017.0
20260903070053 18 360 0.0 0.0 0.00 0.00 0.00 76 1017.0
20260903064601 18 284 0.0 0.0 0.00 0.00 0.00 75 1016.9
20260903063049 18 360 0.0 0.0 0.00 0.00 0.00 74 1016.7
20260903061547 18 286 0.0 0.0 0.00 0.00 0.00 74 1017.1
20260903060047 18 188 0.0 0.0 0.00 0.00 0.00 74 1016.9
20260903054544 17 157 0.0 0.0 0.00 0.00 0.00 74 1017.1
20260903053057 17 151 0.0 0.0 0.00 0.00 0.00 74 1016.7
20260903051547 17 171 0.0 0.0 0.00 0.00 0.00 75 1016.8
20260903050041 17 170 0.0 0.0 0.00 0.00 0.00 75 1017.2
20260903044542 17 171 0.0 0.0 0.00 0.00 0.00 75 1017.2
20260903043040 17 171 0.0 0.0 0.00 0.00 0.00 75 1017.1
20260903041549 17 171 0.0 0.0 0.00 0.00 0.00 76 1016.9
20260903040046 16 171 0.0 0.0 0.00 0.00 0.00 77 1017.0
20260903034536 16 169 0.0 0.0 0.00 0.00 0.00 76 1017.1
20260903033034 17 170 0.0 0.0 0.00 0.00 0.00 76 1017.3
20260903031534 17 194 0.0 0.0 0.00 0.00 0.00 76 1017.6
20260903030040 17 195 0.0 0.0 0.00 0.00 0.00 76 1017.5
20260903024532 17 195 0.0 0.0 0.00 0.00 0.00 76 1017.6
20260903023034 17 195 0.0 0.0 0.00 0.00 0.00 76 1017.5
20260903021529 17 195 0.0 0.0 0.00 0.00 0.00 76 1017.8
20260903020028 17 195 0.0 0.0 0.00 0.00 0.00 76 1017.8
20260903014526 17 195 0.0 0.0 0.00 0.00 0.00 76 1018.1
20260903013024 17 195 0.0 0.0 0.00 0.00 0.00 76 1018.4
20260903011524 17 202 0.0 0.0 0.00 0.00 0.00 76 1018.3
20260903010024 17 226 0.0 0.0 0.00 0.00 0.00 76 1018.4
20260903004522 17 226 0.0 0.0 0.00 0.00 0.00 76 1018.4
20260903003020 17 229 0.0 0.0 0.00 0.00 0.00 76 1018.5
20260903001525 17 229 0.0 0.0 0.00 0.00 0.00 76 1018.6
20260903000023 17 230 0.0 0.0 0.00 0.00 0.00 77 1018.8
20260902234517 17 231 0.0 0.0 0.00 0.00 0.00 77 1018.9
20260902233016 17 231 0.0 0.0 0.00 0.00 0.00 78 1019.0
20260902231522 17 261 0.0 0.0 0.00 0.00 0.00 78 1019.1
20260902230013 17 261 0.0 0.0 0.00 0.00 0.00 78 1019.3
20260902224513 17 360 0.0 0.0 0.00 0.00 0.00 78 1019.2
20260902223011 17 360 0.0 0.0 0.00 0.00 0.00 78 1019.3
20260902221509 17 360 0.0 0.0 0.00 0.00 0.00 77 1019.3
20260902220008 17 360 0.0 0.0 0.00 0.00 0.00 77 1019.5
20260902214507 17 360 0.0 0.0 0.00 0.00 0.00 77 1019.4
20260902213006 17 360 0.0 0.0 0.00 0.00 0.00 77 1019.5
20260902211510 18 360 0.0 0.0 0.00 0.00 0.00 76 1019.4
20260902210006 18 360 0.0 0.0 0.00 0.00 0.00 76 1019.5
20260902204506 18 360 0.0 0.0 0.00 0.00 0.00 76 1019.4
20260902203005 18 360 0.0 0.0 0.00 0.00 0.00 76 1019.7
20260902201504 18 360 0.0 0.0 0.00 0.00 0.00 76 1019.7
20260902200004 18 360 0.0 0.0 0.00 0.00 0.00 75 1019.7
20260902194504 18 360 0.0 0.0 0.00 0.00 0.00 75 1019.7
20260902193004 18 360 0.0 0.0 0.00 0.00 0.00 74 1019.8
20260902191503 19 360 0.0 0.0 0.00 0.00 0.00 74 1019.6
20260902190007 19 360 0.0 0.0 0.00 0.00 0.00 72 1019.7
20260902184503 19 360 0.0 0.0 0.00 0.00 0.00 71 1019.7
20260902183002 20 360 0.0 0.0 0.00 0.00 0.00 70 1019.6
20260902181501 20 360 0.0 0.0 0.00 0.00 0.00 70 1019.5
20260902180005 20 360 0.0 0.0 0.00 0.00 0.00 68 1019.4
20260902174601 20 360 0.0 0.0 0.00 0.00 0.00 67 1019.3
20260902173100 20 290 0.0 0.0 0.00 0.00 0.00 67 1019.2
20260902171618 20 287 0.0 0.0 0.00 0.00 0.00 65 1019.1
20260902170059 21 360 0.0 0.0 0.00 0.00 0.00 64 1019.2
20260902164557 21 285 0.0 0.0 0.00 0.00 0.00 64 1019.3
20260902164505 21 285 0.0 0.0 0.00 0.00 0.00 64 1019.1
20260902164104 21 285 0.0 0.0 0.00 0.00 0.00 64 1019.4
20260902163556 21 285 0.0 0.0 0.00 0.00 0.00 65 1019.3
20260902163042 21 285 0.0 0.0 0.00 0.00 0.00 63 1019.4
20260902162555 21 285 0.0 0.0 0.00 0.00 0.00 63 1019.4
20260902162100 21 286 0.0 0.0 0.00 0.00 0.00 64 1019.5
20260902161652 21 284 0.0 0.0 0.00 0.00 0.00 64 1019.3
20260902161551 21 284 0.0 0.0 0.00 0.00 0.00 64 1019.5
20260902161117 21 285 0.0 0.0 0.00 0.00 0.00 64 1019.5
20260902160547 21 285 0.0 0.0 0.00 0.00 0.00 62 1019.5
20260902160155 21 285 0.0 0.0 0.00 0.00 0.00 62 1019.4
20260902160054 21 285 0.0 0.0 0.00 0.00 0.00 62 1019.6
20260902155546 21 288 0.0 0.0 0.00 0.00 0.00 62 1019.5
20260902155114 21 360 0.0 0.0 0.00 0.00 0.00 62 1019.5
20260902154648 21 360 0.0 0.0 0.00 0.00 0.00 62 1019.3
20260902154545 21 360 0.0 0.0 0.00 0.00 0.00 62 1019.5
20260902154054 22 287 0.0 0.0 0.00 0.00 0.00 61 1019.6
20260902153602 22 288 0.0 0.0 0.00 0.00 0.00 61 1019.6
20260902153049 22 282 0.0 0.0 0.00 0.00 0.00 62 1019.6
20260902153002 22 277 0.0 0.0 0.00 0.00 0.00 62 1019.4
20260902152600 22 360 0.0 0.0 0.00 0.00 0.00 62 1019.7
20260902152045 22 360 0.0 0.0 0.00 0.00 0.00 63 1019.7
20260902151600 22 360 0.0 0.0 0.00 0.00 0.00 63 1019.7
20260902151047 22 285 0.0 0.0 0.00 0.00 0.00 60 1019.7
20260902150559 22 360 0.0 0.0 0.00 0.00 0.00 62 1019.7
20260902150105 22 294 0.0 0.0 0.00 0.00 0.00 64 1019.7
20260902145557 22 292 0.0 0.0 0.00 0.00 0.00 64 1019.8
20260902145047 22 360 0.0 0.0 0.00 0.00 0.00 63 1019.9
20260902144602 22 360 0.0 0.0 0.00 0.00 0.00 65 1019.8
20260902143031 21 360 0.0 0.0 0.00 0.00 0.00 65 1019.6
20260902141539 21 292 0.0 0.0 0.00 0.00 0.00 65 1019.7
20260902140029 21 292 0.0 0.0 0.00 0.00 0.00 67 1019.7
20260902134530 21 292 0.0 0.0 0.00 0.00 0.00 68 1019.8
20260902133032 21 360 0.0 0.0 0.00 0.00 0.00 67 1019.8
20260902131528 21 360 0.0 0.0 0.00 0.00 0.00 67 1019.9
20260902130032 21 287 0.0 0.0 0.00 0.00 0.00 67 1019.9
20260902124528 21 289 0.0 0.0 0.00 0.00 0.00 68 1020.0
20260902123027 21 288 0.0 0.0 0.00 0.00 0.00 67 1020.1
20260902121526 21 286 0.0 0.0 0.00 0.00 0.00 69 1020.2
20260902120027 22 286 0.0 0.0 0.00 0.00 0.00 67 1020.1
20260902114528 22 360 0.0 0.0 0.00 0.00 0.00 66 1020.0
20260902113028 22 286 0.0 0.0 0.00 0.00 0.00 66 1020.1
20260902111522 22 290 0.0 0.0 0.00 0.00 0.00 68 1020.1
20260902110020 21 360 0.0 0.0 0.00 0.00 0.00 71 1020.1